STARLINK-5767 (55586 NORAD) Tracking and Keplerian Element Data

This shows tracking and keplerian element data for the satellite.

Feedback or suggestion? Click here.




ElementValue
Catalog55586
NameSTARLINK-5767
Epoch Orbit130
Epoch Day84.91667824
Epoch Year2023
RAAN111.9008
Inclination42.9966
Eccentricity0.0001413
Argument of Perigee261.3681
Mean Anonmoly56.8749
Mean Motion15.0809156
Decay Rate-0.01160693
L11 55586U 23020T 23084.91667824 -.01160693 00000+0 -80506-1 0 9993
L22 55586 42.9966 111.9008 0001413 261.3681 56.8749 15.08091560 1301



Live tracking and technical data element details for STARLINK-5767 (NORAD 55586). STARLINK-5767 can be tracked NOW for your location showing map with azimuth and elevation plus other details from your city location.







IsCatalogInMostPopularTable: catalog: 55586, numindb: -1

Insert: records affected: 1


GetName: 55586 STARLINK-5767

Hit Count: inserted at: Tue, 28 Mar 2023 01:27:29 GMT